Regional Weather Roundup
Issued by NWS Goodland, KS

Home | Current Version | Previous Version | Graphics & Text | Print | Product List | Glossary On
Versions: 1 2 3 4 5 6 7 8 9 10 11 12 13 14 15 16 17 18 19 20 21 22 23 24 25 26 27 28 29 30 31 32 33 34 35 36 37 38 39 40 41 42 43 44 45 46 47 48 49 50
000
ASUS43 KGLD 030008
RWRGLD

GOODLAND FORECAST AREA HOURLY WEATHER ROUNDUP
NATIONAL WEATHER SERVICE GOODLAND KS
600 PM MDT THU JUL 02 2015

...OFFICIAL OBSERVATIONS...

CITY           SKY/WX    TMP DP  RH WIND       PRES   REMARKS
GOODLAND KS    SUNNY     84  55  36 N12       30.04F
HILL CITY KS   LGT RAIN  90  57  32 N10       29.93F
IMPERIAL NEB   SUNNY     85  55  35 N10       30.03F
MCCOOK NEB     MOSUNNY   86  60  41 N14       29.97F
AKRON CO       SUNNY     81  54  39 NE8       30.11F
BURLINGTON CO  MOSUNNY   85  52  32 NE12      30.08F
LIMON CO       SUNNY     79  50  36 CALM      30.17S
$$

...UNOFFICIAL OBSERVATIONS...

CITY           SKY/WX    TMP DP  RH WIND       PRES   REMARKS
COLBY KS       SUNNY     88  57  35 N13       30.01F
GOVE KS          N/A     88  32  13 MISG        N/A
NORTON KS      MOSUNNY   81  55  41 N8        29.94
SHARON SPRINGS   N/A     86  57  37 N7          N/A
KIT CARSON CO    N/A     86  58  38 MISG        N/A
YUMA CO          N/A     82  55  39 E12         N/A
$$



USA.gov is the U.S. government's official web portal to all federal, state and local government web resources and services.